Theta_e
287 287 286 286 286 286 285 284 283 283 282 282 281 281 281 282 282 282 282 282 282 282 282 281 281 281 282 281 281 281 281 281 281 281 280 280 279 279 281 279 279 279
286 286 286 285 285 285 284 283 283 282 282 281 282 281 282 282 282 281 282 281 281 281 281 281 280 280 279 279 279 279 279 279 278 281 279 278 278 278 278 278 278 278
285 285 285 284 283 283 283 283 282 282 281 281 282 282 283 282 281 281 280 280 280 280 280 279 278 278 278 277 277 277 277 277 277 277 277 277 277 277 277 277 277 277
284 284 283 283 283 282 282 282 282 282 281 281 281 282 282 282 280 280 279 280 278 278 277 277 277 277 276 276 276 277 276 276 276 276 276 276 277 277 276 277 277 276
283 283 283 283 283 283 283 282 281 281 281 281 282 282 281 280 278 278 277 277 277 276 277 276 276 276 276 275 275 275 275 276 275 275 275 274 275 276 277 276 275 275
284 283 283 283 282 282 282 281 281 281 281 281 281 280 279 278 277 276 276 276 276 276 275 275 275 275 275 274 274 274 274 275 274 274 274 274 274 275 277 276 275 275
283 283 282 282 281 281 280 280 280 281 280 280 280 279 278 277 276 276 276 275 275 275 274 274 274 274 274 274 274 273 273 274 274 274 273 274 274 274 274 275 275 274
282 281 281 280 279 279 279 278 278 279 279 279 278 277 276 276 276 275 275 275 274 274 274 274 274 274 273 273 273 273 272 276 275 273 273 273 273 273 273 276 274 273
280 280 280 279 279 278 278 278 277 277 278 277 276 276 275 275 275 274 274 274 274 273 273 273 273 273 273 272 273 272 272 272 273 272 273 272 273 273 273 273 273 273
280 280 279 278 278 278 278 278 277 277 277 276 276 275 274 274 274 274 274 273 273 272 272 272 272 272 272 272 272 272 271 272 272 272 272 273 273 273 273 273 272 272
280 280 279 278 278 278 278 277 277 277 277 276 275 274 273 273 273 273 272 273 273 272 272 271 271 271 271 271 271 271 271 271 272 272 272 272 273 273 275 272 272 272
280 279 278 278 278 277 276 276 276 276 276 276 276 274 273 273 272 273 272 271 271 271 270 271 270 271 271 271 271 271 271 272 272 272 272 272 272 272 272 272 272 272
279 278 278 277 276 276 276 276 275 275 275 275 275 274 272 271 272 272 272 271 271 270 271 270 271 271 271 270 270 271 272 272 272 272 272 272 272 272 272 272 272 272
278 278 277 276 276 276 275 275 275 275 274 273 272 272 272 272 272 272 271 271 270 270 270 270 270 270 270 270 271 271 271 272 272 272 272 272 272 272 272 272 272 272
277 277 277 276 276 275 275 274 274 274 273 272 272 272 272 271 271 271 270 270 270 270 270 270 270 270 270 270 270 272 273 272 272 272 271 271 271 272 272 272 272 272
277 277 276 276 275 275 274 274 274 273 272 272 271 271 271 271 270 270 270 270 270 269 269 270 270 270 272 274 275 274 273 273 273 273 272 271 271 271 270 271 271 271
276 276 276 275 275 275 274 274 273 273 272 271 271 271 270 270 269 269 269 269 269 269 269 270 270 270 273 274 275 276 275 273 273 272 273 272 272 271 270 270 270 271
276 276 275 275 275 275 274 273 272 272 271 270 270 269 269 268 268 268 269 269 269 268 268 269 269 273 274 275 275 275 275 274 273 272 272 272 272 271 271 270 270 270
276 275 275 275 275 274 274 272 271 271 270 270 269 268 267 267 269 268 267 267 267 267 267 268 268 272 274 274 274 275 276 275 273 272 272 272 272 271 271 270 269 269
276 276 275 275 274 273 272 271 270 270 270 268 268 268 267 267 266 266 267 266 266 266 266 267 267 271 273 274 274 275 275 275 273 272 272 271 271 270 269 268 268 268
276 276 275 274 273 272 271 270 270 269 269 268 267 268 267 267 266 264 264 264 265 264 264 264 266 271 273 274 274 274 275 275 273 271 270 270 270 270 269 269 268 269
276 276 275 274 273 271 270 270 269 269 268 268 267 267 265 265 265 264 264 263 263 262 263 263 264 271 272 273 274 274 274 272 271 270 269 269 270 270 270 270 270 269
276 276 275 273 272 271 270 269 269 267 267 267 266 267 266 265 264 263 262 263 262 261 261 262 263 267 271 272 273 273 273 270 270 269 269 269 269 270 270 270 270 270
277 276 275 273 271 270 269 269 268 267 267 266 266 266 265 264 263 262 262 262 261 261 261 260 260 265 270 271 272 273 272 270 270 269 268 269 269 270 270 270 271 272
277 276 275 273 271 270 269 268 267 267 266 265 265 264 264 263 263 262 261 261 261 260 265 262 260 264 268 270 272 272 272 270 269 269 268 268 269 269 270 270 271 272
276 275 273 272 271 269 268 268 267 265 265 265 264 263 263 262 262 262 261 260 260 260 260 261 261 260 263 269 271 272 273 271 270 268 268 268 269 269 269 270 271 271
Wind_Speed
7 6 7 7 7 6 6 7 6 7 6 6 6 5 5 4 4 4 4 5 5 6 5 6 6 6 6 6 5 5 4 4 5 4 4 4 3 4 4 4 4 3
7 7 7 7 7 6 6 6 6 7 6 6 6 5 4 4 4 4 4 5 5 5 5 5 5 5 5 4 4 4 4 4 5 4 4 4 4 4 3 4 4 4
7 7 7 7 8 7 7 6 6 6 6 6 5 5 4 4 5 4 4 4 4 5 4 4 4 4 4 4 4 4 3 4 4 4 4 4 3 3 3 2 3 3
6 7 7 7 7 7 6 7 6 6 5 6 5 4 4 4 4 4 4 5 4 4 4 4 4 4 4 4 4 4 4 4 4 3 3 3 3 1 2 1 2 3
7 7 6 6 5 6 5 6 6 6 6 6 5 5 5 5 4 4 4 4 4 4 4 4 4 3 3 3 3 3 3 3 2 3 2 3 3 3 3 3 4 4
5 5 5 5 5 5 6 5 6 6 5 6 6 5 5 5 4 4 4 4 4 4 4 3 3 3 3 3 3 3 3 3 3 3 3 4 4 4 3 3 4 4
7 6 6 5 6 5 6 5 5 5 5 5 5 5 5 5 4 4 4 4 4 3 4 3 3 3 3 3 3 3 3 2 3 3 3 3 3 4 4 3 3 4
6 5 6 6 6 6 6 5 5 5 5 5 5 4 4 4 4 4 4 4 4 4 3 4 3 3 2 3 2 3 3 3 3 4 3 3 3 3 3 3 3 4
6 6 6 6 7 6 6 6 5 4 5 5 4 4 4 3 3 3 3 4 4 3 3 2 2 2 2 2 2 3 3 3 3 3 3 3 3 3 3 3 3 3
7 6 7 6 7 6 7 6 5 4 5 5 5 5 4 3 3 2 3 4 4 4 3 2 2 2 2 2 2 2 2 2 3 3 3 3 3 3 3 3 3 3
8 7 7 7 7 6 7 7 6 5 4 5 5 4 3 3 2 1 2 3 4 3 2 2 2 2 2 2 2 2 1 2 2 2 3 3 3 3 3 3 3 3
9 8 8 8 7 7 7 6 6 5 5 4 5 4 3 3 2 2 2 3 4 3 3 2 2 2 1 0 1 1 2 2 2 2 3 3 3 3 3 3 3 4
9 8 8 8 8 7 6 6 6 6 5 5 4 3 4 3 3 1 3 3 3 3 2 2 1 0 0 2 3 3 3 2 2 3 3 3 2 3 4 3 3 3
9 8 9 8 7 7 7 6 6 6 6 4 3 3 3 3 3 3 2 3 2 2 2 2 0 0 2 3 2 2 2 2 2 3 3 3 3 4 3 3 4 4
9 8 7 8 8 7 7 7 7 6 6 4 3 3 4 3 3 2 2 3 3 3 1 1 1 1 3 2 1 1 1 3 2 2 3 4 3 3 4 4 4 4
9 8 8 8 8 8 8 7 7 6 5 5 4 4 3 3 3 2 2 2 2 3 3 2 1 2 3 2 1 1 2 3 3 4 3 3 4 4 4 4 4 4
9 9 9 9 8 7 7 7 7 6 6 5 5 5 4 3 3 3 3 3 3 2 1 1 2 1 3 1 1 3 2 2 3 4 5 5 5 5 5 5 4 4
9 9 9 9 9 8 8 6 6 5 5 5 5 4 4 3 3 3 3 3 2 2 2 1 0 3 3 2 2 3 4 3 3 4 4 5 5 6 5 5 5 5
9 10 10 9 8 7 7 6 6 6 6 6 6 4 4 4 3 4 3 3 3 2 1 0 0 4 3 2 3 4 4 4 3 4 5 6 6 6 6 5 4 5
11 10 9 9 8 7 7 7 7 7 6 5 5 5 4 4 3 4 3 3 3 2 1 1 0 3 4 3 4 5 5 5 4 5 5 6 6 5 4 4 4 5
11 10 9 9 8 8 7 7 8 6 6 6 6 6 6 6 5 5 4 3 2 1 1 1 1 5 5 5 5 5 6 5 3 4 4 5 5 5 4 4 5 5
12 11 10 10 10 8 9 8 8 8 8 6 5 5 4 4 3 4 4 4 3 2 1 3 2 5 5 4 5 5 6 3 3 3 4 5 6 6 6 5 5 5
12 12 11 11 11 11 10 10 10 8 6 5 6 6 6 5 5 4 4 4 4 3 3 3 2 4 5 5 6 6 4 1 3 3 4 5 5 6 6 6 6 7
14 13 13 12 12 13 12 10 7 5 7 6 8 7 7 6 4 4 4 4 4 4 3 3 3 4 6 7 7 7 5 3 3 3 4 5 5 5 5 5 6 11
12 12 12 13 13 12 10 11 10 9 7 6 5 5 5 5 4 5 4 4 4 4 5 4 4 4 7 8 8 7 5 3 3 3 4 4 4 4 5 6 7 9
11 12 11 13 13 10 9 8 7 7 7 7 5 5 6 5 4 5 6 5 4 3 3 3 3 4 4 9 8 8 8 4 3 4 5 5 4 4 5 5 6 7
Wind_Direction
98 96 100 98 93 95 100 98 92 96 87 86 93 90 87 85 64 66 73 65 55 51 42 40 33 28 21 20 9 24 44 48 27 32 1 357 356 27 12 357 343 359
96 98 99 99 94 86 88 92 97 101 102 98 99 96 83 84 72 63 57 71 66 56 52 45 41 33 24 18 360 32 27 49 34 9 358 5 2 32 8 352 3 342
106 105 106 108 111 106 103 102 101 94 99 102 94 90 93 83 76 64 57 67 73 66 53 52 48 37 27 13 5 39 26 61 47 356 1 353 354 45 340 8 346 352
101 106 112 111 111 114 110 109 110 109 100 95 100 101 98 88 87 87 70 68 74 72 65 59 56 39 30 9 16 30 24 57 58 17 2 344 332 55 341 28 337 351
115 112 112 115 119 118 121 118 115 109 110 114 104 97 93 92 87 82 77 75 75 62 66 63 51 49 38 12 31 43 24 44 10 24 11 352 333 17 342 13 347 351
110 114 112 116 116 114 110 108 107 113 116 109 107 102 98 96 93 89 87 86 83 78 72 76 61 41 34 28 32 41 29 29 351 12 6 350 340 345 345 351 3 349
126 122 119 111 106 100 101 101 100 99 101 106 99 100 103 96 96 100 100 101 94 93 88 77 63 36 17 32 27 18 3 16 0 6 9 343 347 338 339 2 357 344
124 119 114 111 108 104 102 102 102 104 111 100 103 101 101 110 113 114 103 98 98 89 76 73 52 53 18 40 35 13 9 4 6 6 356 335 344 329 335 345 352 333
121 120 117 116 116 115 113 112 110 110 111 117 115 108 86 95 112 108 105 105 104 93 95 87 79 66 17 44 18 24 11 1 347 351 331 322 331 324 333 336 341 317
128 127 122 124 125 128 125 123 119 112 111 112 117 106 108 98 94 106 115 120 107 90 82 84 69 56 33 24 25 21 18 335 327 324 319 319 320 320 320 318 304 314
139 138 138 135 131 130 126 122 117 113 108 110 105 111 123 134 138 143 139 121 107 103 87 74 71 63 42 17 12 9 349 316 311 324 327 319 311 301 305 315 312 305
150 149 147 140 135 131 127 123 121 118 116 105 116 130 137 127 132 145 114 91 103 99 100 84 66 65 23 31 14 355 348 331 342 341 329 323 315 312 315 314 306 297
158 154 145 141 140 139 136 137 134 134 126 128 128 133 140 142 136 121 117 105 91 101 104 99 85 29 134 64 38 19 13 3 352 340 313 313 313 317 311 301 297 298
156 148 144 145 143 139 139 136 131 127 120 119 124 133 119 130 142 139 135 118 122 110 124 132 154 225 96 72 42 11 15 353 344 323 321 321 320 308 304 299 295 294
148 145 147 143 139 139 138 132 132 130 131 133 143 139 128 117 117 122 121 136 147 156 163 159 162 179 115 113 107 7 8 348 330 323 314 307 305 309 308 305 296 292
150 149 150 145 146 150 148 143 141 138 138 141 142 137 144 143 149 158 144 159 156 170 159 160 186 143 140 118 62 10 341 328 324 310 306 304 304 302 299 295 298 296
154 155 150 151 151 145 144 143 138 144 148 149 152 149 152 150 150 168 172 177 173 172 169 176 160 162 182 230 339 335 338 313 304 304 302 304 299 296 296 298 295 296
160 154 152 153 152 153 150 148 147 151 156 157 156 154 158 160 176 176 163 173 167 176 176 190 157 226 231 242 309 319 311 305 297 296 295 293 292 290 293 300 301 301
160 161 161 158 157 150 145 147 150 154 162 168 168 169 154 151 188 150 186 173 156 198 190 250 169 260 245 261 295 303 305 303 292 287 286 284 287 290 296 298 302 305
166 168 167 159 149 145 148 154 162 175 172 169 161 155 160 171 163 163 185 171 182 181 188 246 305 269 272 270 285 293 298 298 282 284 283 285 286 294 294 297 302 299
168 170 163 153 147 149 157 168 176 174 170 177 171 166 172 177 169 177 190 172 165 176 194 256 271 267 267 271 278 289 291 295 310 290 282 282 284 282 284 282 280 281
169 172 168 156 153 163 172 174 176 178 176 174 164 164 157 154 169 166 187 176 186 177 202 252 261 269 271 275 282 284 289 302 289 279 275 277 281 282 284 284 282 279
176 174 169 159 164 173 179 180 176 177 182 172 162 165 163 168 179 177 183 180 184 178 194 248 259 277 280 277 282 279 286 279 263 263 271 273 275 280 281 287 289 289
181 177 170 169 172 183 183 180 171 168 177 172 169 166 172 174 170 179 191 180 179 186 191 217 250 268 277 281 274 269 255 230 246 255 264 268 276 280 284 287 288 291
179 179 175 171 177 183 178 172 174 176 167 152 169 158 155 151 161 181 196 195 189 182 208 218 244 264 278 278 268 257 255 234 238 246 261 271 267 267 281 279 268 264
182 180 175 172 176 171 172 169 154 148 160 158 166 153 144 149 174 183 196 198 185 180 204 215 235 258 260 264 260 256 252 234 212 231 247 265 267 263 256 263 254 253